Location: Haliburton Scout Reserve
(45.0900°N, 78.3200°W)
Time: 17:30:22
(UTC-04:00)

JY1SAT - Pass Details

Date: 28 June 2024
Orbit: 536 x 549 km, 97.5° (Epoch: 11 July)

Event Time Altitude Azimuth Distance (km) Brightness Sun altitude
Exits shadow 22:52:42 - 203° (SSW) 1,993 ? -14.2°
Reaches altitude 10° 22:53:12 10° 206° (SSW) 1,818 ? -14.3°
Maximum altitude 22:56:33 26° 265° (W) 1,093 ? -14.6°
Drops below altitude 10° 22:59:56 10° 324° (NW) 1,835 ? -14.9°
Sets 23:02:20 0° 336° (NNW) 2,735 ? -15.1°
